When you browse on this site, cookies collect data to enhance your experience and personalize the content and advertising you see.
Visit our Privacy Policy to learn more. By continuing to use the site, you agree to this use of cookies and data.
  • In Hungary
  • List of Countries
  • For 7 days
  • Water Temperature
  • Satellite Maps
  • Weather Map
  • News
  • Weather Widgets
  • user-avatar
    Login

    Hourly Weather Ogbomosho

    Today, 17 January, Thursday

    Time Temperature Precipitation Wind Pressure Humidity
    00:00 +29°C° 0 mm 1 mps 731 mmHg 30%
    01:00 +28°C° 0 mm 1 mps 730 mmHg 37%
    02:00 +28°C° 0 mm 1 mps 730 mmHg 44%
    03:00 +27°C° 0 mm 1 mps 730 mmHg 51%
    04:00 +27°C° 0 mm 1 mps 730 mmHg 58%
    05:00 +26°C° 0 mm 1 mps 731 mmHg 66%
    06:00 +25°C° 0 mm 1 mps 731 mmHg 73%
    07:00 +28°C° 0 mm 1 mps 731 mmHg 66%
    08:00 +30°C° 0 mm 1 mps 732 mmHg 59%
    09:00 +32°C° 0 mm 1 mps 732 mmHg 51%
    10:00 +34°C° 0 mm 1 mps 732 mmHg 40%
    11:00 +37°C° 0 mm 1 mps 732 mmHg 29%
    12:00 +40°C° 0 mm 1 mps 731 mmHg 18%
    13:00 +40°C° 0 mm 1 mps 731 mmHg 15%
    14:00 +40°C° 0 mm 2 mps 730 mmHg 12%
    15:00 +40°C° 0 mm 3 mps 729 mmHg 9%
    16:00 +39°C° 0 mm 2 mps 729 mmHg 9%
    17:00 +37°C° 0 mm 2 mps 729 mmHg 9%
    18:00 +35°C° 0 mm 1 mps 729 mmHg 9%
    19:00 +34°C° 0 mm 1 mps 729 mmHg 10%
    20:00 +33°C° 0 mm 1 mps 730 mmHg 10%
    21:00 +32°C° 0 mm 1 mps 730 mmHg 10%
    22:00 +30°C° 0 mm 2 mps 730 mmHg 28%
    23:00 +29°C° 0 mm 2 mps 730 mmHg 46%

    Tomorrow, 18 January, Friday

    Time Temperature Precipitation Wind Pressure Humidity
    00:00 +28°C° 0 mm 3 mps 731 mmHg 64%
    01:00 +28°C° 0 mm 3 mps 730 mmHg 71%
    02:00 +27°C° 0 mm 3 mps 730 mmHg 79%
    03:00 +27°C° 0 mm 2 mps 730 mmHg 86%
    04:00 +27°C° 0 mm 2 mps 730 mmHg 84%
    05:00 +27°C° 0 mm 2 mps 731 mmHg 82%
    06:00 +27°C° 0 mm 2 mps 731 mmHg 80%
    07:00 +28°C° 0 mm 2 mps 731 mmHg 74%
    08:00 +29°C° 0 mm 2 mps 732 mmHg 68%
    09:00 +30°C° 0 mm 2 mps 733 mmHg 62%
    10:00 +34°C° 0 mm 2 mps 732 mmHg 51%
    11:00 +36°C° 0 mm 2 mps 732 mmHg 40%
    12:00 +39°C° 0 mm 1 mps 731 mmHg 29%
    13:00 +39°C° 0 mm 1 mps 731 mmHg 26%
    14:00 +40°C° 0 mm 1 mps 730 mmHg 23%
    15:00 +40°C° 0 mm 1 mps 729 mmHg 21%
    16:00 +39°C° 0 mm 1 mps 729 mmHg 22%
    17:00 +37°C° 0 mm 1 mps 729 mmHg 24%
    18:00 +35°C° 0 mm 1 mps 729 mmHg 25%
    19:00 +35°C° 0.1 mm 2 mps 730 mmHg 36%
    20:00 +34°C° 0.1 mm 3 mps 731 mmHg 46%
    21:00 +32°C° 0.1 mm 4 mps 731 mmHg 56%
    22:00 +30°C° 0 mm 4 mps 731 mmHg 61%
    23:00 +30°C° 0 mm 3 mps 731 mmHg 66%

    Day after tomorrow, 19 January, Saturday

    Time Temperature Precipitation Wind Pressure Humidity
    00:00 +29°C° 0 mm 3 mps 731 mmHg 71%
    01:00 +28°C° 0 mm 3 mps 731 mmHg 75%
    02:00 +28°C° 0 mm 3 mps 730 mmHg 78%
    03:00 +27°C° 0 mm 3 mps 730 mmHg 82%
    04:00 +27°C° 0 mm 3 mps 730 mmHg 81%
    05:00 +27°C° 0 mm 3 mps 731 mmHg 79%
    06:00 +28°C° 0 mm 3 mps 731 mmHg 78%
    07:00 +28°C° 0 mm 3 mps 732 mmHg 74%
    08:00 +29°C° 0 mm 3 mps 732 mmHg 71%
    09:00 +29°C° 0 mm 3 mps 733 mmHg 67%
    10:00 +31°C° 0 mm 3 mps 732 mmHg 59%
    11:00 +34°C° 0 mm 3 mps 732 mmHg 50%
    12:00 +36°C° 0 mm 3 mps 731 mmHg 41%
    13:00 +37°C° 0 mm 2 mps 730 mmHg 39%
    14:00 +37°C° 0 mm 2 mps 730 mmHg 36%
    15:00 +37°C° 0 mm 2 mps 729 mmHg 34%
    16:00 +36°C° 0 mm 2 mps 729 mmHg 38%
    17:00 +35°C° 0 mm 2 mps 729 mmHg 42%
    18:00 +34°C° 0 mm 2 mps 730 mmHg 45%
    19:00 +33°C° 0 mm 3 mps 730 mmHg 49%
    20:00 +33°C° 0 mm 3 mps 731 mmHg 52%
    21:00 +32°C° 0 mm 4 mps 732 mmHg 56%
    22:00 +30°C° 0 mm 4 mps 731 mmHg 62%
    23:00 +29°C° 0 mm 3 mps 731 mmHg 68%

    20 January, Sunday

    Time Temperature Precipitation Wind Pressure Humidity
    00:00 +28°C° 0 mm 3 mps 731 mmHg 75%
    01:00 +28°C° 0 mm 3 mps 731 mmHg 77%
    02:00 +27°C° 0 mm 3 mps 730 mmHg 79%
    03:00 +27°C° 0 mm 2 mps 730 mmHg 82%
    04:00 +27°C° 0 mm 2 mps 730 mmHg 83%
    05:00 +26°C° 0 mm 2 mps 731 mmHg 84%
    06:00 +26°C° 0 mm 2 mps 731 mmHg 85%
    07:00 +28°C° 0 mm 2 mps 732 mmHg 77%
    08:00 +29°C° 0 mm 3 mps 732 mmHg 68%
    09:00 +31°C° 0 mm 3 mps 733 mmHg 60%
    10:00 +34°C° 0.1 mm 3 mps 732 mmHg 53%
    11:00 +35°C° 0.1 mm 3 mps 732 mmHg 46%
    12:00 +37°C° 0.1 mm 3 mps 731 mmHg 39%
    13:00 +37°C° 0 mm 2 mps 731 mmHg 38%
    14:00 +37°C° 0 mm 2 mps 730 mmHg 38%
    15:00 +37°C° 0 mm 2 mps 729 mmHg 37%
    16:00 +36°C° 0 mm 2 mps 729 mmHg 39%
    17:00 +35°C° 0 mm 1 mps 730 mmHg 40%
    18:00 +34°C° 0 mm 1 mps 730 mmHg 41%
    19:00 +35°C° 0 mm 2 mps 731 mmHg 44%
    20:00 +34°C° 0 mm 2 mps 731 mmHg 47%
    21:00 +32°C° 0 mm 2 mps 732 mmHg 50%
    22:00 +31°C° 0 mm 2 mps 731 mmHg 57%
    23:00 +30°C° 0 mm 3 mps 731 mmHg 64%

    21 January, Monday

    Time Temperature Precipitation Wind Pressure Humidity
    00:00 +29°C° 0 mm 3 mps 731 mmHg 71%
    01:00 +29°C° 0.5 mm 3 mps 731 mmHg 72%
    02:00 +28°C° 0.5 mm 3 mps 730 mmHg 74%
    03:00 +28°C° 0.5 mm 3 mps 730 mmHg 75%
    04:00 +27°C° 0 mm 3 mps 730 mmHg 76%
    05:00 +27°C° 0 mm 2 mps 731 mmHg 77%
    06:00 +27°C° 0 mm 2 mps 731 mmHg 78%
    07:00 +29°C° 0.2 mm 2 mps 732 mmHg 70%
    08:00 +30°C° 0.2 mm 2 mps 732 mmHg 63%
    09:00 +32°C° 0.2 mm 2 mps 733 mmHg 56%
    10:00 +34°C° 0.1 mm 2 mps 732 mmHg 50%
    11:00 +36°C° 0.1 mm 2 mps 732 mmHg 44%
    12:00 +37°C° 0.1 mm 2 mps 731 mmHg 38%
    13:00 +37°C° 0 mm 2 mps 730 mmHg 38%
    14:00 +35°C° 0 mm 1 mps 730 mmHg 39%
    15:00 +35°C° 0 mm 1 mps 729 mmHg 40%
    16:00 +35°C° 0.6 mm 2 mps 729 mmHg 45%
    17:00 +32°C° 0.6 mm 2 mps 729 mmHg 50%
    18:00 +31°C° 0.6 mm 3 mps 729 mmHg 56%
    19:00 +31°C° 0.2 mm 3 mps 730 mmHg 59%
    20:00 +30°C° 0.2 mm 3 mps 730 mmHg 62%
    21:00 +29°C° 0.2 mm 3 mps 731 mmHg 65%
    22:00 +29°C° 0 mm 3 mps 731 mmHg 68%
    23:00 +29°C° 0 mm 2 mps 730 mmHg 70%

    22 January, Tuesday

    Time Temperature Precipitation Wind Pressure Humidity
    00:00 +28°C° 0 mm 2 mps 730 mmHg 72%
    01:00 +28°C° 0 mm 2 mps 730 mmHg 76%
    02:00 +27°C° 0 mm 2 mps 730 mmHg 79%
    03:00 +27°C° 0 mm 2 mps 729 mmHg 82%
    04:00 +27°C° 0 mm 2 mps 730 mmHg 84%
    05:00 +26°C° 0 mm 1 mps 730 mmHg 86%
    06:00 +26°C° 0 mm 1 mps 731 mmHg 87%
    07:00 +28°C° 0 mm 1 mps 731 mmHg 78%
    08:00 +29°C° 0 mm 1 mps 732 mmHg 70%
    09:00 +31°C° 0 mm 2 mps 732 mmHg 61%
    10:00 +34°C° 0 mm 2 mps 732 mmHg 52%
    11:00 +36°C° 0 mm 2 mps 731 mmHg 43%
    12:00 +37°C° 0 mm 1 mps 731 mmHg 34%
    13:00 +39°C° 0 mm 1 mps 730 mmHg 31%
    14:00 +39°C° 0 mm 1 mps 729 mmHg 29%
    15:00 +40°C° 0 mm 1 mps 728 mmHg 26%
    16:00 +39°C° 0 mm 1 mps 728 mmHg 28%
    17:00 +36°C° 0 mm 1 mps 729 mmHg 31%
    18:00 +36°C° 0 mm 2 mps 729 mmHg 33%
    19:00 +35°C° 0 mm 2 mps 729 mmHg 38%
    20:00 +34°C° 0 mm 2 mps 730 mmHg 44%
    21:00 +32°C° 0 mm 2 mps 730 mmHg 49%
    22:00 +30°C° 0 mm 2 mps 730 mmHg 60%
    23:00 +29°C° 0 mm 3 mps 730 mmHg 72%
    Show more